Location: Bo?a Wola
(50.4192°N, 19.7966°E)
Time: 13:20:22
(UTC+00:00)

Cosmos 1975 Rocket - Pass Details

Date: 15 June 2024
Orbit: 601 x 629 km, 82.5° (Epoch: 16 July)

Event Time Altitude Azimuth Distance (km) Brightness Sun altitude
Exits shadow 00:21:38 20° 210° (SSW) 1,419 4.3 -13.0°
Maximum altitude 00:24:29 57° 283° (WNW) 727 3.3 -12.8°
Drops below altitude 10° 00:28:51 10° 3° (N) 1,996 6.8 -12.5°
Sets 00:31:08 0° 8° (N) 2,911 8.1 -12.4°
